Skip Navigation Links
NOAA logo - Click to go to the NOAA homepage
NOAA's National Weather Service
Alaska Aviation Weather Unit
  NWS logo - Click to go to the NWS homepage
Left Navbar Graphic     21 AKDT = 05 GMT

   
NOAA is celebrating 200 years of science, service, and stewardship. Visit the NOAA 200th celebration Web site to learn more.
USA.gov is the U.S. Government's official Web portal to all Federal, state and local government Web resources and services.
Facebook
NWS on Facebook

Important Change Regarding the AAWU Web Presence

 

Over the last several months, the AAWU has been working to navigate its webpages to a nationally supported server. Security, as well as other needs, have necessitated the change.  In the process, we have made an effort to enhance the functionality of our website, as well as some of our products. As of June 27, 2017, aawu.arh.noaa.gov will be discontinued. The new AAWU web address is weather.gov/aawu. It is now live and will run in-parallel with the old site until it is discontinued. Please send any feedback or questions regarding the new webpages to nws.ar.aawu.webauthors@noaa.gov.  Thank you for your patience during this time of transition.
AAWU Home :: Display TAF Add Bookmark
TAF PATC 270400Z 2704/2810 18012G18KT 0400 FG OVC002 QNH3015INS
      TX10/2718Z TN06/2710Z=
METAR PATC 252355Z AUTO 18013KT 10SM FEW014 OVC029 09/06 A2989=

METAR PATC 260055Z AUTO 16013KT 10SM BKN003 BKN031 08/07 A2987=

METAR PATC 260155Z AUTO 19011KT 10SM BKN030 08/07 A2985=

METAR PATC 260255Z AUTO 19008KT 10SM FEW080 BKN090 08/07 A2984=

METAR PATC 260355Z AUTO 17007KT 10SM FEW080 FEW095 BKN140 08/06
     A2983=

METAR PATC 260455Z AUTO 19005KT 10SM BKN090 09/06 A2982=


NOAA's National Weather Service
Alaska Aviation Weather Unit
6930 Sand Lake Road
Anchorage, AK 99502-1845
Disclaimer
Credits
Glossary
Privacy Policy
About Us
Career Opportunities
Contact AAWU Internet Services Site last modified: April, 17th 2012